Location: Asheville, NC
(35.6000°N, 82.5500°W)
Time: 18:40:52
(UTC-04:00)

BEESAT 3 - Pass Details

Date: 10 March 2018
Orbit: 499 x 517 km, 64.9° (Epoch: 19 June)

Event Time Altitude Azimuth Distance (km) Brightness Sun altitude
Exits shadow 04:39:35 - 357° (N) 2,027 ? -26.7°
Reaches altitude 10° 04:40:31 10° 5° (N) 1,741 ? -26.5°
Maximum altitude 04:43:19 19° 51° (NE) 1,282 ? -26.0°
Drops below altitude 10° 04:46:05 10° 97° (E) 1,727 ? -25.4°
Sets 04:48:45 0° 116° (ESE) 2,604 ? -24.9°
